| time (UTC) | temp F | wind direction | speed MPH | gust MPH | rain 1hr in | rain 24hr in | rain mn in | humidity % | barometer mb |
| 20260509065716 | 59 | 203 | 5.0 | 7.0 | 0.00 | 0.00 | 0.00 | 66 | 1020.0 |
| 20260509064756 | 59 | 0.0 | 1.0 | 0.00 | 0.00 | 0.00 | 67 | 1019.8 | |
| 20260509063716 | 59 | 203 | 4.0 | 6.0 | 0.00 | 0.00 | 0.00 | 67 | 1019.7 |
| 20260509062716 | 59 | 203 | 3.0 | 6.0 | 0.00 | 0.00 | 0.00 | 67 | 1019.7 |
| 20260509061718 | 60 | 270 | 3.0 | 4.0 | 0.00 | 0.00 | 0.00 | 64 | 1019.8 |
| 20260509060738 | 61 | 293 | 1.0 | 3.0 | 0.00 | 0.00 | 0.00 | 63 | 1019.9 |
| 20260509055718 | 61 | 180 | 4.0 | 11.0 | 0.00 | 0.00 | 0.00 | 64 | 1019.8 |
| 20260509054718 | 62 | 270 | 8.0 | 12.0 | 0.00 | 0.00 | 0.00 | 63 | 1019.7 |
| 20260509053738 | 62 | 203 | 4.0 | 8.0 | 0.00 | 0.00 | 0.00 | 63 | 1019.6 |
| 20260509052718 | 63 | 180 | 6.0 | 10.0 | 0.00 | 0.00 | 0.00 | 61 | 1019.6 |
| 20260509051718 | 64 | 203 | 5.0 | 9.0 | 0.00 | 0.00 | 0.00 | 60 | 1019.8 |
| 20260509050718 | 64 | 270 | 6.0 | 9.0 | 0.00 | 0.00 | 0.00 | 60 | 1019.6 |
| 20260509045718 | 64 | 225 | 6.0 | 17.0 | 0.00 | 0.00 | 0.00 | 59 | 1019.7 |
| 20260509044718 | 65 | 248 | 3.0 | 6.0 | 0.00 | 0.00 | 0.00 | 58 | 1019.5 |
| 20260509043718 | 64 | 248 | 3.0 | 6.0 | 0.00 | 0.00 | 0.00 | 60 | 1019.3 |
| 20260509042718 | 64 | 158 | 4.0 | 7.0 | 0.00 | 0.00 | 0.00 | 60 | 1019.1 |
| 20260509041818 | 64 | 248 | 4.0 | 9.0 | 0.00 | 0.00 | 0.00 | 60 | 1019.1 |
| 20260509035718 | 63 | 270 | 4.0 | 7.0 | 0.00 | 0.00 | 0.00 | 62 | 1019.0 |
| 20260509034718 | 63 | 270 | 4.0 | 8.0 | 0.00 | 0.00 | 0.00 | 62 | 1019.2 |
| 20260509033738 | 62 | 203 | 4.0 | 8.0 | 0.00 | 0.00 | 0.00 | 64 | 1018.9 |
| 20260509032758 | 62 | 270 | 2.0 | 6.0 | 0.00 | 0.00 | 0.00 | 66 | 1019.0 |
| 20260509031718 | 62 | 293 | 3.0 | 5.0 | 0.00 | 0.00 | 0.00 | 65 | 1019.1 |
| 20260509030718 | 61 | 248 | 4.0 | 10.0 | 0.00 | 0.00 | 0.00 | 68 | 1019.1 |
| 20260509025718 | 61 | 248 | 4.0 | 7.0 | 0.00 | 0.00 | 0.00 | 69 | 1019.1 |
| 20260509024718 | 61 | 270 | 2.0 | 3.0 | 0.00 | 0.00 | 0.00 | 68 | 1019.1 |
| 20260509023738 | 61 | 270 | 4.0 | 12.0 | 0.00 | 0.00 | 0.00 | 68 | 1019.3 |
| 20260509022718 | 61 | 293 | 2.0 | 3.0 | 0.00 | 0.00 | 0.00 | 68 | 1019.3 |
| 20260509021738 | 61 | 293 | 3.0 | 4.0 | 0.00 | 0.00 | 0.00 | 68 | 1019.4 |
| 20260509020718 | 61 | 225 | 5.0 | 8.0 | 0.00 | 0.00 | 0.00 | 68 | 1019.6 |
| 20260509015718 | 61 | 203 | 3.0 | 4.0 | 0.00 | 0.00 | 0.00 | 68 | 1019.4 |
| 20260509014738 | 61 | 135 | 2.0 | 7.0 | 0.00 | 0.00 | 0.00 | 68 | 1019.5 |
| 20260509013718 | 61 | 225 | 2.0 | 4.0 | 0.00 | 0.00 | 0.00 | 68 | 1019.5 |
| 20260509012738 | 61 | 90 | 1.0 | 2.0 | 0.00 | 0.00 | 0.00 | 67 | 1019.7 |
| 20260509011718 | 61 | 68 | 5.0 | 9.0 | 0.00 | 0.00 | 0.00 | 66 | 1019.9 |
| 20260509010738 | 60 | 0.0 | 1.0 | 0.00 | 0.00 | 0.00 | 67 | 1019.8 | |
| 20260509005718 | 60 | 23 | 2.0 | 4.0 | 0.00 | 0.00 | 0.00 | 64 | 1019.7 |
| 20260509004718 | 60 | 135 | 2.0 | 4.0 | 0.00 | 0.00 | 0.00 | 64 | 1019.6 |
| 20260509003718 | 60 | 113 | 1.0 | 3.0 | 0.00 | 0.00 | 0.00 | 63 | 1019.4 |
| 20260509002718 | 61 | 270 | 1.0 | 2.0 | 0.00 | 0.00 | 0.00 | 59 | 1019.3 |
| 20260509001718 | 61 | 338 | 3.0 | 6.0 | 0.00 | 0.00 | 0.00 | 58 | 1019.3 |
| 20260509000717 | 61 | 113 | 1.0 | 2.0 | 0.00 | 0.00 | 0.00 | 59 | 1019.2 |
| 20260508235718 | 62 | 203 | 2.0 | 4.0 | 0.00 | 0.00 | 0.00 | 58 | 1019.4 |
| 20260508234718 | 61 | 0.0 | 2.0 | 0.00 | 0.00 | 0.00 | 58 | 1019.4 | |
| 20260508233718 | 60 | 45 | 1.0 | 3.0 | 0.00 | 0.00 | 0.00 | 59 | 1019.3 |
| 20260508232718 | 60 | 90 | 2.0 | 5.0 | 0.00 | 0.00 | 0.00 | 62 | 1019.3 |
| 20260508231718 | 59 | 113 | 1.0 | 3.0 | 0.00 | 0.00 | 0.00 | 63 | 1019.2 |
| 20260508230738 | 58 | 135 | 1.0 | 4.0 | 0.00 | 0.00 | 0.00 | 65 | 1019.1 |
| 20260508225718 | 57 | 293 | 1.0 | 2.0 | 0.00 | 0.00 | 0.00 | 69 | 1019.1 |
| 20260508224718 | 56 | 113 | 2.0 | 3.0 | 0.00 | 0.00 | 0.00 | 70 | 1019.0 |
| 20260508223718 | 55 | 113 | 3.0 | 6.0 | 0.00 | 0.00 | 0.00 | 74 | 1018.9 |
| 20260508222718 | 55 | 90 | 2.0 | 6.0 | 0.00 | 0.00 | 0.00 | 74 | 1018.9 |
| 20260508221718 | 55 | 248 | 2.0 | 3.0 | 0.00 | 0.00 | 0.00 | 74 | 1018.7 |
| 20260508220738 | 55 | 113 | 4.0 | 8.0 | 0.00 | 0.00 | 0.00 | 75 | 1018.4 |
| 20260508215738 | 55 | 113 | 2.0 | 3.0 | 0.00 | 0.00 | 0.00 | 75 | 1018.2 |
| 20260508214718 | 55 | 158 | 2.0 | 4.0 | 0.00 | 0.00 | 0.00 | 74 | 1018.0 |
| 20260508213718 | 55 | 113 | 4.0 | 8.0 | 0.00 | 0.00 | 0.00 | 76 | 1017.9 |
| 20260508212738 | 54 | 113 | 4.0 | 6.0 | 0.00 | 0.00 | 0.00 | 78 | 1017.8 |
| 20260508211717 | 54 | 113 | 3.0 | 6.0 | 0.00 | 0.00 | 0.00 | 78 | 1017.9 |
| 20260508210717 | 54 | 113 | 1.0 | 2.0 | 0.00 | 0.00 | 0.00 | 79 | 1017.7 |
| 20260508205738 | 54 | 90 | 3.0 | 4.0 | 0.00 | 0.00 | 0.00 | 78 | 1017.6 |
| 20260508204718 | 54 | 113 | 2.0 | 3.0 | 0.00 | 0.00 | 0.00 | 79 | 1017.6 |
| 20260508203718 | 54 | 113 | 3.0 | 4.0 | 0.00 | 0.00 | 0.00 | 79 | 1017.6 |
| 20260508202717 | 54 | 113 | 3.0 | 4.0 | 0.00 | 0.00 | 0.00 | 78 | 1017.3 |
| 20260508201737 | 54 | 135 | 2.0 | 7.0 | 0.00 | 0.00 | 0.00 | 78 | 1017.2 |
| 20260508200717 | 55 | 113 | 4.0 | 7.0 | 0.00 | 0.00 | 0.00 | 76 | 1017.0 |
| 20260508195717 | 56 | 90 | 3.0 | 7.0 | 0.00 | 0.01 | 0.00 | 75 | 1016.9 |
| 20260508194717 | 56 | 135 | 3.0 | 5.0 | 0.00 | 0.02 | 0.00 | 74 | 1016.8 |
| 20260508193717 | 56 | 135 | 2.0 | 2.0 | 0.00 | 0.02 | 0.00 | 74 | 1016.8 |
| 20260508192718 | 57 | 113 | 3.0 | 5.0 | 0.00 | 0.02 | 0.00 | 73 | 1016.8 |
| 20260508191718 | 57 | 113 | 1.0 | 4.0 | 0.00 | 0.02 | 0.00 | 73 | 1016.7 |
| 20260508190717 | 57 | 135 | 7.0 | 11.0 | 0.00 | 0.02 | 0.00 | 73 | 1016.4 |
| 20260508185718 | 56 | 203 | 3.0 | 5.0 | 0.00 | 0.02 | 0.00 | 74 | 1016.4 |
| 20260508184718 | 55 | 113 | 6.0 | 9.0 | 0.00 | 0.02 | 0.00 | 76 | 1016.4 |
| 20260508183718 | 55 | 90 | 2.0 | 4.0 | 0.00 | 0.02 | 0.00 | 76 | 1016.2 |
| 20260508182717 | 55 | 113 | 4.0 | 8.0 | 0.00 | 0.02 | 0.00 | 76 | 1016.4 |
| 20260508181717 | 55 | 113 | 5.0 | 11.0 | 0.00 | 0.02 | 0.00 | 76 | 1016.3 |
| 20260508180718 | 55 | 113 | 5.0 | 8.0 | 0.00 | 0.02 | 0.00 | 75 | 1016.1 |
| 20260508175718 | 55 | 113 | 6.0 | 9.0 | 0.00 | 0.02 | 0.00 | 74 | 1016.2 |
| 20260508174718 | 55 | 158 | 3.0 | 5.0 | 0.00 | 0.02 | 0.00 | 75 | 1016.1 |
| 20260508173718 | 55 | 135 | 1.0 | 7.0 | 0.00 | 0.02 | 0.00 | 76 | 1015.8 |
| 20260508172718 | 54 | 113 | 2.0 | 3.0 | 0.00 | 0.02 | 0.00 | 77 | 1016.0 |
| 20260508171718 | 53 | 113 | 1.0 | 3.0 | 0.00 | 0.02 | 0.00 | 77 | 1016.0 |
| 20260508170718 | 53 | 113 | 3.0 | 6.0 | 0.00 | 0.02 | 0.00 | 77 | 1016.0 |
| 20260508165717 | 54 | 113 | 4.0 | 7.0 | 0.00 | 0.02 | 0.00 | 77 | 1016.2 |
| 20260508164717 | 53 | 135 | 6.0 | 10.0 | 0.00 | 0.02 | 0.00 | 77 | 1016.0 |
| 20260508163718 | 53 | 135 | 4.0 | 9.0 | 0.00 | 0.02 | 0.00 | 77 | 1016.1 |
| 20260508162718 | 53 | 135 | 4.0 | 6.0 | 0.00 | 0.02 | 0.00 | 76 | 1016.3 |
| 20260508161717 | 54 | 135 | 3.0 | 6.0 | 0.00 | 0.02 | 0.00 | 75 | 1016.1 |
| 20260508160717 | 54 | 113 | 2.0 | 5.0 | 0.00 | 0.02 | 0.00 | 75 | 1016.0 |
| 20260508155718 | 54 | 113 | 3.0 | 4.0 | 0.00 | 0.02 | 0.00 | 75 | 1016.3 |
| 20260508154717 | 54 | 135 | 3.0 | 5.0 | 0.00 | 0.02 | 0.00 | 75 | 1016.3 |
| 20260508153717 | 54 | 135 | 3.0 | 6.0 | 0.00 | 0.03 | 0.00 | 75 | 1016.2 |
| 20260508152717 | 54 | 135 | 3.0 | 7.0 | 0.00 | 0.03 | 0.00 | 75 | 1016.0 |
| 20260508151718 | 53 | 113 | 2.0 | 6.0 | 0.00 | 0.03 | 0.00 | 77 | 1015.8 |
| 20260508150717 | 52 | 203 | 2.0 | 3.0 | 0.00 | 0.03 | 0.00 | 77 | 1016.1 |
| 20260508145717 | 52 | 293 | 2.0 | 5.0 | 0.00 | 0.03 | 0.00 | 77 | 1015.7 |
| 20260508144758 | 53 | 90 | 3.0 | 6.0 | 0.00 | 0.03 | 0.00 | 75 | 1016.0 |
| 20260508143717 | 54 | 180 | 2.0 | 3.0 | 0.00 | 0.03 | 0.00 | 74 | 1015.8 |
| 20260508142717 | 53 | 270 | 1.0 | 3.0 | 0.00 | 0.03 | 0.00 | 75 | 1016.0 |
| 20260508141717 | 53 | 135 | 1.0 | 2.0 | 0.00 | 0.03 | 0.00 | 76 | 1016.1 |
| 20260508140737 | 53 | 90 | 2.0 | 4.0 | 0.00 | 0.03 | 0.00 | 74 | 1016.1 |
| 20260508135717 | 53 | 113 | 2.0 | 5.0 | 0.00 | 0.03 | 0.03 | 74 | 1016.0 |
| 20260508134717 | 53 | 45 | 1.0 | 3.0 | 0.00 | 0.03 | 0.03 | 73 | 1016.2 |
| 20260508133737 | 54 | 135 | 3.0 | 4.0 | 0.00 | 0.03 | 0.03 | 72 | 1016.0 |
| 20260508132717 | 54 | 68 | 2.0 | 3.0 | 0.00 | 0.03 | 0.03 | 73 | 1016.4 |
| 20260508131717 | 54 | 248 | 3.0 | 4.0 | 0.00 | 0.03 | 0.03 | 72 | 1016.5 |
| 20260508130717 | 54 | 68 | 1.0 | 3.0 | 0.00 | 0.03 | 0.03 | 72 | 1016.8 |
| 20260508125717 | 54 | 180 | 2.0 | 4.0 | 0.00 | 0.03 | 0.03 | 72 | 1016.8 |
| 20260508124717 | 54 | 293 | 1.0 | 2.0 | 0.00 | 0.05 | 0.03 | 72 | 1016.5 |
| 20260508123717 | 54 | 45 | 1.0 | 2.0 | 0.00 | 0.05 | 0.03 | 72 | 1016.7 |
| 20260508122737 | 54 | 225 | 2.0 | 8.0 | 0.00 | 0.06 | 0.03 | 72 | 1016.7 |
| 20260508121717 | 54 | 180 | 4.0 | 8.0 | 0.00 | 0.06 | 0.03 | 72 | 1016.7 |
| 20260508120717 | 54 | 315 | 1.0 | 2.0 | 0.00 | 0.06 | 0.03 | 73 | 1016.8 |
| 20260508115717 | 53 | 45 | 4.0 | 7.0 | 0.00 | 0.06 | 0.03 | 73 | 1016.7 |
| 20260508114717 | 53 | 135 | 2.0 | 5.0 | 0.00 | 0.08 | 0.03 | 74 | 1016.7 |
| 20260508113717 | 53 | 90 | 3.0 | 8.0 | 0.00 | 0.09 | 0.03 | 74 | 1016.6 |
| 20260508112737 | 54 | 68 | 3.0 | 5.0 | 0.00 | 0.09 | 0.03 | 73 | 1016.1 |
| 20260508111717 | 54 | 135 | 3.0 | 6.0 | 0.00 | 0.09 | 0.03 | 72 | 1015.9 |
| 20260508110717 | 53 | 315 | 2.0 | 5.0 | 0.00 | 0.11 | 0.03 | 73 | 1015.8 |
| 20260508105737 | 53 | 135 | 3.0 | 7.0 | 0.00 | 0.12 | 0.03 | 73 | 1015.7 |
| 20260508104717 | 53 | 135 | 4.0 | 7.0 | 0.00 | 0.12 | 0.03 | 73 | 1015.8 |
| 20260508103717 | 52 | 248 | 3.0 | 4.0 | 0.00 | 0.12 | 0.03 | 73 | 1015.8 |
| 20260508102737 | 52 | 68 | 1.0 | 2.0 | 0.00 | 0.12 | 0.03 | 74 | 1015.9 |
| 20260508101717 | 52 | 158 | 1.0 | 3.0 | 0.00 | 0.12 | 0.03 | 73 | 1015.9 |
| 20260508100717 | 53 | 113 | 3.0 | 7.0 | 0.00 | 0.12 | 0.03 | 72 | 1016.0 |
| 20260508095717 | 53 | 203 | 4.0 | 10.0 | 0.00 | 0.12 | 0.03 | 72 | 1015.7 |
| 20260508094717 | 53 | 270 | 3.0 | 7.0 | 0.00 | 0.12 | 0.03 | 72 | 1015.6 |
| 20260508093716 | 52 | 225 | 4.0 | 7.0 | 0.00 | 0.12 | 0.03 | 72 | 1015.5 |
| 20260508092716 | 52 | 180 | 3.0 | 5.0 | 0.00 | 0.12 | 0.03 | 73 | 1015.1 |
| 20260508091737 | 52 | 248 | 2.0 | 4.0 | 0.00 | 0.12 | 0.03 | 73 | 1015.3 |
| 20260508090717 | 53 | 225 | 2.0 | 4.0 | 0.00 | 0.12 | 0.03 | 73 | 1015.4 |
| 20260508085737 | 53 | 248 | 3.0 | 9.0 | 0.00 | 0.12 | 0.03 | 73 | 1015.4 |
| 20260508084716 | 52 | 180 | 3.0 | 6.0 | 0.00 | 0.12 | 0.03 | 75 | 1015.6 |
| 20260508083737 | 53 | 135 | 2.0 | 3.0 | 0.00 | 0.12 | 0.03 | 75 | 1015.7 |
| 20260508082737 | 53 | 225 | 6.0 | 10.0 | 0.00 | 0.12 | 0.03 | 76 | 1015.8 |
| 20260508081757 | 53 | 248 | 2.0 | 6.0 | 0.00 | 0.12 | 0.03 | 76 | 1015.7 |
| 20260508080717 | 53 | 203 | 3.0 | 4.0 | 0.00 | 0.12 | 0.03 | 76 | 1015.7 |
| 20260508075716 | 53 | 203 | 3.0 | 11.0 | 0.00 | 0.12 | 0.03 | 77 | 1015.8 |
| 20260508074716 | 53 | 248 | 3.0 | 9.0 | 0.00 | 0.12 | 0.03 | 77 | 1015.5 |
| 20260508073737 | 53 | 203 | 3.0 | 9.0 | 0.00 | 0.12 | 0.03 | 77 | 1015.3 |
| 20260508072717 | 53 | 203 | 1.0 | 1.0 | 0.00 | 0.12 | 0.03 | 77 | 1015.3 |
| 20260508071716 | 52 | 135 | 1.0 | 2.0 | 0.00 | 0.12 | 0.03 | 78 | 1015.2 |
| 20260508070717 | 52 | 203 | 3.0 | 5.0 | 0.00 | 0.12 | 0.03 | 77 | 1015.1 |